Location: Riverton
(43.0250°N, 108.3790°W)
Time: 02:50:35
(UTC-06:00)

Daily predictions for brighter satellites

Satellite Brightness Start Highest point End
(mag) Time Altitude Azimuth Time Altitude Azimuth Time Altitude Azimuth
CZ-2C R/B 4.5 00:11:17 30° NW 00:11:17 30° NW 00:14:07 10° NNW
Cosmos 1943 Rocket 3.1 00:13:55 10° NNW 00:17:39 43° NW 00:17:39 43° NW
H-2A R/B 4.2 00:22:29 25° N 00:22:29 25° N 00:24:34 10° N
Cosmos 2061 Rocket 4.4 00:35:12 60° NNE 00:35:12 60° NNE 00:40:22 10° N
Cosmos 2100 Rocket 4.4 00:35:31 61° NNW 00:35:31 61° NNW 00:40:48 10° N
Cosmos 1802 Rocket 4.5 00:36:10 55° NNE 00:36:10 55° NNE 00:40:54 10° N
USA 267 4.3 00:37:05 10° NE 00:43:09 42° NNW 00:49:13 10° W
Cosmos 1943 4.3 00:44:50 39° NW 00:44:50 39° NW 00:49:31 10° NNE
Cosmos 2369 Rocket 4.0 00:46:12 10° NW 00:48:53 22° WNW 00:48:53 22° WNW
CZ-2C R/B 4.4 00:58:39 10° N 01:02:36 25° WNW 01:02:36 25° WNW
ADEOS Rocket 3.5 01:03:16 10° NNE 01:08:56 60° NNE 01:08:56 60° NNE
Mayak 1.3 01:08:53 10° N 01:10:12 19° N 01:10:12 19° N
USA 234 4.5 01:20:17 29° WNW 01:20:17 29° WNW 01:23:36 10° WNW
CZ-4C R/B 4.5 01:14:51 13° WNW 01:18:07 21° NNW 01:22:46 10° NNE
ATLAS 5 CENTAUR R/B 4.3 01:15:04 10° NW 01:17:13 20° WNW 01:17:13 20° WNW
SeaSat 1 4.4 01:28:34 23° NW 01:28:34 23° NW 01:30:28 10° NW
Lacrosse 4 Rocket 4.1 01:38:30 10° N 01:41:16 16° NE 01:41:22 16° NE
Gbstr 26 Del rocket 4.4 01:59:09 74° ENE 01:59:09 74° ENE 02:05:44 10° ENE
Lacrosse 5 rocket 4.3 02:11:25 12° ENE 02:11:25 12° ENE 02:11:43 10° ENE
Cosmos 2034 Rocket 4.5 02:10:41 54° ENE 02:10:41 54° ENE 02:16:10 10° NNE
Meteor 2-4 Rocket 4.4 02:21:42 48° NE 02:21:42 48° NE 02:25:40 10° NNE
CZ-2D R/B 3.7 02:24:21 10° NE 02:28:39 26° E 02:28:39 26° E
COSMOS 2406 4.2 02:32:46 38° NW 02:32:46 38° NW 02:37:24 10° NNE
Cosmos 2278 4.2 02:28:00 10° NNW 02:32:42 58° N 02:32:42 58° N
Cosmos 1980 Rocket 3.7 02:31:41 10° N 02:36:42 32° NE 02:39:51 19° ESE
Cosmos 1464 Rocket 4.2 02:38:21 61° NW 02:38:21 61° NW 02:43:53 10° N
SL-16 R/B 3.3 02:36:53 40° ESE 02:38:29 49° ENE 02:44:29 10° N
Cosmos 1697 Rocket 3.2 02:33:44 10° NNW 02:39:19 55° ENE 02:39:27 55° ENE
Exosat Rocket 4.4 02:33:49 10° NNW 02:39:43 68° ENE 02:41:47 48° SE
Cosmos 2082 Rocket 2.6 02:48:31 58° ENE 02:48:31 58° ENE 02:53:25 10° NNE
H-2A R/B 4.1 02:44:51 10° NNE 02:47:33 33° NE 02:47:33 33° NE
Nadezhda 4 Rocket 3.9 02:52:48 10° N 02:58:33 74° NW 02:58:33 74° NW
Resurs 1-4 Rocket 2.5 02:59:31 10° NNE 03:04:38 54° E 03:04:38 54° E
Cosmos 1656 4.4 02:59:30 10° NNW 03:03:25 43° NW 03:03:25 43° NW
ATLAS 3B R/B 4.5 03:03:32 17° SE 03:06:05 21° ESE 03:11:02 10° ENE
Cosmos 1634 Rocket 4.1 03:09:33 60° SE 03:10:27 68° E 03:16:41 10° NNE
Meteor 1-15 Rocket 4.2 03:08:25 10° NNW 03:14:07 74° WNW 03:14:07 74° WNW
IRS-P3 4.0 03:09:47 10° NNE 03:14:58 84° NNE 03:14:58 84° NNE
SL-08 R/B 3.7 03:16:47 61° NNW 03:16:47 61° NNW 03:20:48 10° NNW
NPP 3.6 03:10:51 10° NNE 03:16:04 80° NW 03:16:04 80° NW
Cosmos 1025 Rocket 3.8 03:19:50 50° NNE 03:19:50 50° NNE 03:23:06 10° NNE
Lacrosse 4 Rocket 3.4 03:16:01 10° NNW 03:17:39 22° NW 03:17:39 22° NW
CBERS-1 4.0 03:16:03 10° NNE 03:20:52 76° NNW 03:20:52 76° NNW
UNK 4.2 03:22:28 52° NNW 03:22:28 52° NNW 03:26:00 10° NNW
Cosmos 1833 Rocket 2.8 03:23:18 62° WNW 03:23:19 62° WNW 03:28:57 10° NNE
Cosmos 2208 Rocket 4.1 03:27:00 64° SE 03:27:20 66° ESE 03:32:34 10° NNE
Cosmos 1898 Rocket 4.0 03:24:49 10° NNW 03:29:57 56° ENE 03:32:39 27° SE
Cosmos 2026 Rocket 4.0 03:25:35 10° N 03:32:01 84° E 03:34:02 47° SSE
AQUA 4.0 03:32:32 10° N 03:36:54 60° NW 03:36:54 60° NW
Iridium 4 Rocket 3.6 03:40:35 48° NW 03:40:35 48° NW 03:44:08 10° N
Cosmos 1766 4.4 03:36:06 10° N 03:39:46 39° ENE 03:40:19 37° E
Cosmos 1937 Rocket 4.3 03:35:05 10° N 03:40:08 50° ENE 03:45:08 10° SE
Cosmos 1570 Rocket 3.8 03:40:35 76° SW 03:41:00 84° WNW 03:46:22 10° NNE
Cosmos 1356 Rocket 3.5 03:47:07 71° NNE 03:47:07 71° NNE 03:50:48 10° NNE
Lacrosse 5 rocket 2.3 03:47:05 39° NW 03:47:05 39° NW 03:50:58 10° NE
Cosmos 2360 4.0 03:41:45 10° NNW 03:47:27 76° WSW 03:49:03 48° S
Cosmos 724 4.5 03:48:14 46° S 03:49:43 61° ESE 03:55:26 10° NE
ARIANE 5 R/B 2.5 03:47:41 10° NNE 03:52:57 88° WNW 03:54:03 58° SSW
Cosmos 2195 Rocket 4.5 03:47:13 10° NNW 03:53:15 58° W 03:54:22 50° SW
Cosmos 468 Rocket 4.0 03:52:17 58° S 03:53:21 84° ESE 03:58:42 10° NNE
Spot 4 Rocket 3.9 03:48:43 10° NNE 03:53:54 84° WNW 03:54:53 60° SSW
Timation 2 Rocket 4.5 03:52:40 31° SSE 03:55:15 50° ESE 04:00:59 10° NE
Cosmos 990 Rocket 4.2 03:50:09 10° NNW 03:55:18 67° ENE 04:00:26 10° SSE
Cosmos 1066 Rocket 4.2 04:00:22 52° SW 04:01:23 62° WNW 04:06:47 10° N
Cosmos 1814 Rocket 4.3 04:01:04 38° SSE 04:02:52 61° ESE 04:07:59 10° NNE
Helios 1A Rocket 2.8 03:58:58 10° NNE 04:03:10 84° ESE 04:03:39 69° S
CZ-2D R/B 3.6 04:00:39 10° NNE 04:04:43 66° ESE 04:05:36 50° SSE
USA 238 DEB 4.0 04:05:07 31° S 04:08:29 60° ESE 04:15:18 10° NE
USA 238 4.0 04:05:12 30° S 04:08:35 59° ESE 04:15:24 10° NE
Cosmos 1655 Rocket 3.9 04:02:31 10° N 04:08:54 77° W 04:12:48 25° S
CZ-2D R/B 2.6 04:03:58 10° N 04:09:01 42° WNW 04:09:59 38° W
Cosmos 2150 Rocket 4.4 04:03:47 10° NNW 04:09:15 66° ENE 04:14:40 10° SSE
Cosmos 1726 Rocket 3.4 04:07:40 10° NNW 04:11:58 71° W 04:12:35 60° SSW
Cosmos 2298 Rocket 4.0 04:11:08 10° NNW 04:16:30 85° ENE 04:21:48 10° SSE
Cosmos 2360 Rocket 4.2 04:13:15 10° N 04:18:10 30° NE 04:23:05 10° ESE
BREEZE-M R/B 2.6 04:18:18 62° S 04:18:38 67° SE 04:23:53 10° ENE
Meteor 1-21 4.3 04:15:47 26° S 04:19:05 78° E 04:24:43 10° NNE
IRS-1D 4.2 04:14:31 10° N 04:19:20 40° WNW 04:20:30 35° W
Cosmos 1980 Rocket 2.6 04:15:34 10° NW 04:20:46 40° WSW 04:21:31 38° SW
SL-16 R/B 3.4 04:21:58 29° W 04:22:17 29° W 04:27:39 10° NW
Cosmos 1697 Rocket 4.2 04:18:35 10° NW 04:21:08 19° WNW 04:21:08 19° WNW
H-2A R/B 4.3 04:21:17 10° NNW 04:24:08 18° WNW 04:24:08 18° WNW
Okean 1-7 Rocket 4.3 04:23:57 35° W 04:24:17 36° WNW 04:28:28 10° N
UNKNOWN OBJECT B 2.7 04:24:42 10° N 04:28:33 63° WNW 04:29:16 50° SW
BREEZE-M DEB (TANK) 3.7 04:12:32 10° WNW 04:29:22 82° SSW 04:33:25 10° SE
ADEOS II 2.3 04:24:09 10° NNE 04:29:25 71° ESE 04:33:18 18° S
Cosmos 841 Rocket 3.5 04:28:29 28° SSW 04:31:18 80° ESE 04:36:32 10° NNE
ADEOS 3.5 04:26:17 10° N 04:31:30 69° WNW 04:34:06 30° SSW
Cosmos 2082 Rocket 3.7 04:30:21 18° W 04:32:24 22° NW 04:36:46 10° N
Cosmos 2058 Rocket 3.1 04:29:06 10° NNW 04:33:28 59° W 04:35:26 30° SSW
SL-16 R/B 2.2 04:28:24 10° NNW 04:34:07 88° ENE 04:39:48 10° SSE
Cosmos 1602 Rocket 4.2 04:30:58 14° SSE 04:34:33 52° E 04:38:46 10° NNE
Cosmos 1470 4.2 04:31:10 10° N 04:34:56 39° ENE 04:38:40 10° SSE
Cosmos 2228 3.2 04:32:50 10° NNW 04:36:58 48° W 04:38:16 35° SW
Cosmos 1606 Rocket 4.5 04:36:21 10° NNW 04:40:01 28° W 04:40:02 28° W
Resurs 1-4 Rocket 3.5 04:40:15 10° NNW 04:44:07 21° WNW 04:45:43 18° W
NOSS 3-2 (C) 4.3 04:40:41 12° S 04:45:45 44° ESE 04:51:49 10° NE
Cosmos 1626 Rocket 3.5 04:43:42 17° S 04:46:57 82° E 04:51:18 10° N
Cosmos 540 Rocket 3.8 04:42:44 14° S 04:47:00 63° ESE 04:52:07 10° NNE
Cosmos 2322 Rocket 2.1 04:43:55 10° NNW 04:49:33 74° WSW 04:55:08 10° SSE
SJ 16-02 1.9 04:48:01 10° NNW 04:52:24 60° ENE 04:56:45 10° SSE
Cosmos 1378 3.6 04:49:19 11° S 04:52:48 60° E 04:56:32 10° NNE
Cosmos 1707 3.9 04:49:19 10° SSE 04:52:59 44° E 04:56:43 10° NNE
Cosmos 1842 3.8 04:52:06 29° WSW 04:53:26 39° WNW 04:57:11 10° N
Cosmos 292 Rocket 3.7 04:52:10 20° SSW 04:55:27 79° WNW 05:00:18 10° NNE
ATLAS 3B R/B 2.8 04:50:47 20° SW 04:56:04 82° NW 05:03:02 10° NE
ATLAS CENTAUR R/B 3.1 04:53:12 10° NNW 04:57:19 38° NE 05:01:40 10° ESE
Cosmos 1763 Rocket 4.0 04:54:44 23° WSW 04:57:36 44° WNW 05:02:42 10° N
NOSS 3-2 (A) 3.5 04:57:37 16° SSW 05:02:24 79° ESE 05:08:57 10° NE
Cosmos 1805 4.4 05:05:06 10° NW 05:08:20 25° W 05:09:41 20° WSW
Cosmos 1953 2.3 05:05:48 10° NNW 05:09:51 64° W 05:13:51 10° S
PSLV R/B 4.4 05:07:09 10° NNE 05:10:57 55° E 05:14:38 10° S
USA 215 3.3 05:07:41 10° NE 05:14:16 84° SE 05:20:18 13° SW
Cosmos 44 4.0 05:10:10 10° NW 05:14:56 36° WSW 05:19:49 10° S
CENTAUR R/B 4.0 05:11:42 10° S 05:16:52 32° ESE 05:22:38 10° NE
Aureole 2 Rocket 2.5 05:16:44 10° NNW 05:20:35 86° WSW 05:24:08 10° SSE
PSLV R/B 4.4 05:21:51 14° SSW 05:23:45 26° SSE 05:26:20 10° E
Cosmos 1125 Rocket 3.5 05:19:32 10° NNW 05:24:52 78° WSW 05:30:09 10° SSE
Meteor 1-28 Rocket 4.1 05:22:02 10° SSE 05:25:40 54° ENE 05:29:22 10° N
Lacrosse 5 rocket 3.8 05:25:01 10° NW 05:27:11 14° NNW 05:29:18 10° NNE
Cosmos 2292 Rocket 4.2 05:26:21 10° N 05:29:56 44° ENE 05:32:55 10° SSE
Cosmos 2237 4.5 05:25:20 10° NNW 05:31:05 76° ENE 05:36:48 10° SSE
ERBS 3.1 05:28:47 10° SSW 05:32:02 46° SE 05:35:18 10° ENE
Cosmos 2322 3.9 05:26:20 10° NNW 05:32:06 81° ENE 05:37:50 10° SSE
Okean O Rocket 2.1 05:29:02 10° NNE 05:33:22 61° E 05:37:39 10° S
Cosmos 1825 Rocket 3.5 05:32:42 10° S 05:37:01 89° E 05:41:22 10° N
CRYOSAT 2 4.3 05:38:36 10° S 05:43:25 71° W 05:48:17 10° N
Cosmos 44 Rocket 4.2 05:39:50 10° NW 05:44:14 29° WSW 05:48:38 10° S
Cosmos 372 Rocket 4.3 05:43:24 10° NNW 05:48:21 44° WSW 05:53:14 10° S
USA 267 3.8 05:42:45 10° ESE 05:49:11 64° NE 05:55:39 10° NW
Cosmos 1417 Rocket 4.5 05:45:50 10° SSW 05:51:58 74° W 05:58:13 10° N
Meteor 2-5 Rocket 3.7 05:48:55 10° SSW 05:54:26 80° W 06:00:04 10° N
PSLV R/B 4.4 05:51:51 10° N 05:55:33 31° WNW 05:59:14 10° SW
